Regional Weather Roundup
Issued by NWS

Home | Current Version | Previous Version | Text Only | Print | Product List | Glossary Off
Versions: 1 2 3 4 5 6 7 8 9 10 11 12 13 14 15 16 17 18 19 20 21 22 23 24 25 26 27 28 29 30 31 32 33 34 35 36 37 38 39 40 41 42 43 44 45 46 47 48 49 50

000
ASUS43 KMPX 031001
RWRMN
WEATHER ROUNDUP FOR MINNESOTA
NATIONAL WEATHER SERVICE TWIN CITIES/CHANHASSEN MN
500 AM CDT SUN MAY 03 2015


NOTE: "FAIR" INDICATES FEW OR NO CLOUDS BELOW 12,000 FEET WITH NO
SIGNIFICANT WEATHER AND/OR OBSTRUCTIONS TO VISIBILITY. N/A MEANS
CURRENT SKY AND/OR WEATHER CONDITIONS ARE NOT AVAILABLE.

MNZ060>063-068>070-031100-
   Twin Cities Metro

CITY           SKY/WX    TMP DP  RH WIND       PRES   REMARKS
TWIN CITIES    PTCLDY    56  50  80 CALM      29.78R
ST PAUL        PTCLDY    58  50  75 CALM      29.79R
CRYSTAL        PTCLDY    55  50  83 CALM      29.77S
BLAINE         MOCLDY    57  52  82 CALM      29.78S
LAKEVILLE      PTCLDY    52  48  87 CALM      29.77R
EDEN PRAIRIE   PTCLDY    56  49  77 CALM      29.77R
SOUTH ST PAUL  PTCLDY    57  49  73 CALM      29.79R
LAKE ELMO      FAIR      54  48  82 W5        29.80R
$$
MNZ001>005-007-008-013>017-022>024-027-028-031100-
   Northwest Minnesota

CITY           SKY/WX    TMP DP  RH WIND       PRES   REMARKS
BEMIDJI        CLEAR     58  47  67 W8        29.68R
HALLOCK        MOCLDY    46  37  71 NW9       29.71R
ROSEAU         PTCLDY    48  39  71 NW5       29.67R
WARROAD        CLEAR     48  43  81 NW5       29.67R
THIEF RVR FALL MOCLDY    48  45  87 CALM      29.70R
CROOKSTON      MOCLDY    43  39  87 NW6       29.71R
MOORHEAD       CLEAR     54  45  71 NW9       29.71R
PARK RAPIDS    CLEAR     58  49  72 S6        29.68R
MAHNOMEN       FAIR      52  46  82 SW5       29.68R
$$
MNZ006-009>011-018-025>026-031100-
   North Central Minnesota

CITY           SKY/WX    TMP DP  RH WIND       PRES   REMARKS
BAUDETTE       PTCLDY    48  42  80 W7        29.65R
FLAG ISLAND    CLEAR     52  45  76 NW7       29.65R
INTL FALLS     PTCLDY    44  41  89 CALM      29.64R
WASKISH        CLEAR     54  48  82 CALM      29.67R
BIG FORK       PTCLDY    50  43  76 CALM      29.66R
LONGVILLE      PTCLDY    61  50  67 S6        29.68R
GRAND RAPIDS   MOCLDY    54  39  58 SW3       29.66R
CRANE LAKE     MOCLDY    52  45  76 CALM      29.66R
ORR            PTCLDY    59  41  51 CALM      29.63R
COOK           MOCLDY    59  43  55 SW3       29.66R
WALKER         FAIR      61  48  63 SW9G17    29.66R
$$
MNZ012-019>021-037-031100-
   Northeast Minnesota

CITY           SKY/WX    TMP DP  RH WIND       PRES   REMARKS
DULUTH         LGT RAIN  62  50  64 S16       29.69F
ELY            CLOUDY    57  45  62 S7        29.66R THUNDER
HIBBING        MOCLDY    51  41  68 CALM      29.66S
EVELETH        CLOUDY    57  45  62 S3        29.68S
DULUTH HARBOR  CLOUDY    45  43  93 S6        29.72S
TWO HARBORS    CLOUDY    54  46  76 SW6       29.68S
SILVER BAY     CLOUDY    46  43  87 NW5       29.69R
GRAND MARAIS     N/A     40  38  93 MISG      29.70R
G MARAIS ARPRT CLOUDY    50  37  62 SW7       29.71R
$$
MNZ029>031-032-039>041-046>048-054>057-064-031100-
   West Central Minnesota

CITY           SKY/WX    TMP DP  RH WIND       PRES   REMARKS
FERGUS FALLS   CLEAR     55  52  88 S3        29.69R
WHEATON        PTCLDY    55  50  82 SE8       29.69S
MORRIS         PTCLDY    57  54  88 SE8       29.70S
ALEXANDRIA     MOCLDY    60  53  77 S13       29.72S
ELBOW LAKE     FAIR      55  52  87 S10       29.69S
WADENA         CLEAR     57  50  77 SW6       29.68R
GLENWOOD       CLOUDY    59  55  88 S7        29.74R
APPLETON       MOCLDY    61  52  72 E8        29.70F
BENSON         CLOUDY    63  52  67 S10       29.71F
ORTONVILLE     MOCLDY    61  52  72 E9        29.68F
MADISON        MOCLDY    57  52  82 SE9       29.68S
WILLMAR        FAIR      59  54  82 E6        29.75S
$$
MNZ033>034-036-042>043-049>051-058-059-031100-
   Central Minnesota

CITY           SKY/WX    TMP DP  RH WIND       PRES   REMARKS
ST CLOUD       LGT RAIN  60  53  77 S8        29.76R
SAUK CENTRE    LGT RAIN  59  55  87 S10       29.72S
PAYNESVILLE    CLOUDY    57  51  81 E7        29.76R
AITKIN         CLOUDY    57  52  82 S7        29.68S
PINE RIVER     PTCLDY    57  52  82 S7        29.72R
BRAINERD       MOCLDY    54  51  90 S6        29.71R
STAPLES        PTCLDY    55  50  82 S6        29.69R
LONG PRAIRIE   FAIR      57  54  88 CALM      29.71F
LITTLE FALLS   LGT RAIN  59  54  82 SE5       29.72S
LITCHFIELD     MOCLDY    59  54  82 CALM      29.77R
BUFFALO        MOCLDY    57  50  76 SE5       29.77F
MAPLE LAKE     MOCLDY    58  53  84 CALM      29.77F
$$
MNZ037-044-045-052-053-031100-
   East Central Minnesota

CITY           SKY/WX    TMP DP  RH WIND       PRES   REMARKS
PRINCETON      LGT RAIN  63  54  72 S5        29.77R
MORA           LGT RAIN  59  52  77 W3        29.78F
CAMBRIDGE      CLOUDY    63  50  63 W5        29.76R
RUSH CITY      MOCLDY    60  51  73 W3        29.78R
MOOSE LAKE     CLOUDY    59  52  77 S12G18    29.69F
HINCKLEY       PTSUNNY   61  54  77 CALM      29.76F
CLOQUET        CLOUDY    63  46  55 SW16      29.69F
MCGREGOR       CLOUDY    57  52  82 S10       29.69F
$$
MNZ071>073-080-081-089-090-097-098-031100-
   Southwest Minnesota

CITY           SKY/WX    TMP DP  RH WIND       PRES   REMARKS
MONTEVIDEO     MOCLDY    57  52  82 S8        29.72S
GRANITE FALLS  MOCLDY    56  50  80 E7        29.73R
CANBY          MOCLDY    62  53  73 S7        29.69F
MARSHALL       MOCLDY    57  48  72 S7        29.70S
REDWOOD FALLS  CLOUDY    55  51  86 SE10      29.71F
OLIVIA         MOCLDY    54  46  76 SE8       29.71R
PIPESTONE      CLOUDY    55  52  88 E5        29.72R
WINDOM         CLOUDY    55  52  88 SE5       29.73S
WORTHINGTON    CLOUDY    55  48  76 NE5       29.73R
JACKSON        CLOUDY    54  50  87 SE6       29.74S
TRACY          MOCLDY    58  52  81 SE6       29.72S
SLAYTON        CLOUDY    54  51  91 CALM      29.72F
$$
MNZ065>067-074>077-082>085-091>093-031100-
   South Central Minnesota

CITY           SKY/WX    TMP DP  RH WIND       PRES   REMARKS
MANKATO        CLOUDY    55  46  71 S10       29.76S
NEW ULM        CLOUDY    54  50  87 SE6       29.74S
ST JAMES       CLOUDY    54  48  82 SE5       29.75S
FAIRMONT       CLOUDY    55  46  71 S9        29.74S
GLENCOE        MOCLDY    56  52  86 E3        29.76S
FARIBAULT      MOCLDY    57  50  77 S7        29.78R
OWATONNA       MOCLDY    57  48  72 S15       29.76F
WASECA         CLOUDY    55  48  76 SE6       29.78R
ALBERT LEA     CLOUDY    55  50  82 S9        29.77F
$$
MNZ078>079-086>088-094>096-031100-
   Southeast Minnesota

CITY           SKY/WX    TMP DP  RH WIND       PRES   REMARKS
ROCHESTER      PTCLDY    54  49  83 S13       29.81F
RED WING       CLEAR     57  50  77 SE7       29.78S
STANTON        PTCLDY    57  49  74 S8        29.77R
DODGE CENTER   MOCLDY    55  48  76 S13       29.79S
WINONA         PTCLDY    59  48  67 CALM      29.81F
AUSTIN         CLOUDY    55  48  76 S8        29.79F
PRESTON        MOCLDY    55  49  79 S10       29.82F
$$
ABBREVIATIONS USED IN REMARKS
   TC - TEMPERATURES IN CELSIUS
  WCI - WIND CHILL INDEX
   HX - HEAT INDEX
  VSB - VISIBILITY
$$



USA.gov is the U.S. government's official web portal to all federal, state and local government web resources and services.